Broomfield, CO

2:18 AM MDT on May 25, 2017 (GMT -0600)
Jeffco

Weather History for KBJC - September, 2013

Change the Weather History Date:

Tuesday, September 24, 2013

  Actual Average Record
Temperature  
Mean Temperature 60 °F -  
Max Temperature 75 °F 70 °F 86 °F (1992)
Min Temperature 46 °F 46 °F 27 °F (1985)
Degree Days  
Heating Degree Days 4    
Growing Degree Days 10 (Base 50)    
Moisture  
Dew Point 31 °F    
Average Humidity 42    
Maximum Humidity 66    
Minimum Humidity 16    
Precipitation  
Precipitation 0.00 in - - ()
Sea Level Pressure  
Sea Level Pressure 30.08 in    
Wind  
Wind Speed 5 mph (WSW)    
Max Wind Speed 10 mph    
Max Gust Speed 18 mph    
Visibility 10 miles    
Events      
Averages and records for this station are not official NWS values.
T = Trace of Precipitation, MM = Missing Value Source: NWS Daily Summary

Daily Weather History Graph

Daily Weather History Graph

Search for Another Location

Airport or City:

Trip Planner

Search our weather history database for the weather conditions in past years. The results will help you decide how hot, cold, wet, or windy it might be!

Date:

Astronomy

Sep. 24, 2013 Rise Set
Actual Time 6:50 AM MDT 6:53 PM MDT
Civil Twilight 6:23 AM MDT 7:20 PM MDT
Nautical Twilight 5:51 AM MDT 7:52 PM MDT
Astronomical Twilight 5:19 AM MDT 8:24 PM MDT
Moon 10:13 PM MDT (9/24) 12:06 PM MDT (9/24)
Length of Visible Light 12h 57m
Length of Day
12h 03m
Waning Gibbous, 72% of the Moon is Illuminated
Sep 24
Waning Gibbous
Sep 26
Last Quarter
Oct 4
New
Oct 11
First Quarter
Oct 18
Full

Hourly Weather History & Observations

Time (MDT) Temp. Windchill Dew Point Humidity Pressure Visibility Wind Dir Wind Speed Gust Speed Precip Events Conditions
12:15 AM 53.6 °F - 28.4 °F 38% 30.10 in 10.0 mi WNW 10.4 mph - N/A   Clear
12:35 AM 55.4 °F - 26.6 °F 33% 30.10 in 10.0 mi WNW 10.4 mph 18.4 mph N/A   Clear
12:55 AM 53.6 °F - 30.2 °F 41% 30.09 in 10.0 mi West 3.5 mph - N/A   Clear
1:15 AM 51.8 °F - 30.2 °F 44% 30.10 in 10.0 mi SW 4.6 mph - N/A   Clear
1:35 AM 51.8 °F - 32.0 °F 47% 30.11 in 10.0 mi SSW 3.5 mph - N/A   Clear
1:55 AM 53.6 °F - 32.0 °F 44% 30.11 in 10.0 mi Calm Calm - N/A   Clear
2:15 AM 53.6 °F - 32.0 °F 44% 30.11 in 10.0 mi Calm Calm - N/A   Clear
2:35 AM 51.8 °F - 30.2 °F 44% 30.10 in 10.0 mi Calm Calm - N/A   Clear
2:55 AM 50.0 °F - 32.0 °F 50% 30.10 in 10.0 mi Calm Calm - N/A   Clear
3:14 AM 50.0 °F - 30.2 °F 47% 30.10 in 10.0 mi South 4.6 mph - N/A   Clear
3:35 AM 46.4 °F 45.2 °F 32.0 °F 57% 30.10 in 10.0 mi West 3.5 mph - N/A   Clear
3:55 AM 50.0 °F - 30.2 °F 47% 30.10 in 10.0 mi West 3.5 mph - N/A   Clear
4:15 AM 46.4 °F - 32.0 °F 57% 30.10 in 10.0 mi Calm Calm - N/A   Clear
4:35 AM 46.4 °F - 32.0 °F 57% 30.11 in 10.0 mi Calm Calm - N/A   Clear
4:55 AM 46.4 °F 45.2 °F 32.0 °F 57% 30.11 in 10.0 mi WSW 3.5 mph - N/A   Clear
5:15 AM 50.0 °F - 30.2 °F 47% 30.11 in 10.0 mi Calm Calm - N/A   Clear
5:35 AM 48.2 °F - 32.0 °F 54% 30.12 in 10.0 mi Calm Calm - N/A   Clear
5:55 AM 50.0 °F - 32.0 °F 50% 30.13 in 10.0 mi Calm Calm - N/A   Clear
6:45 AM 46.4 °F 42.4 °F 35.6 °F 66% 30.14 in 30.0 mi North 8.1 mph - N/A   Partly Cloudy
7:47 AM 50.0 °F - 35.6 °F 58% 30.16 in 40.0 mi Calm Calm - N/A   Partly Cloudy
8:53 AM 53.6 °F - 33.8 °F 47% 30.18 in 40.0 mi Calm Calm - N/A   Scattered Clouds
9:53 AM 59.0 °F - 37.4 °F 45% 30.18 in 35.0 mi SE 4.6 mph - N/A   Scattered Clouds
9:55 AM 48.2 °F - 35.6 °F 62% 30.08 in 10.0 mi South 4.6 mph - N/A   Scattered Clouds
10:47 AM 64.4 °F - 32.0 °F 30% 30.17 in 35.0 mi ESE 5.8 mph - N/A   Scattered Clouds
11:47 AM 68.0 °F - 19.4 °F 16% 30.15 in 35.0 mi Variable 4.6 mph - N/A   Partly Cloudy
12:45 PM 69.8 °F - 24.8 °F 18% 30.13 in 30.0 mi ESE 8.1 mph - N/A   Clear
1:50 PM 71.6 °F - 24.8 °F 17% 30.09 in 30.0 mi East 5.8 mph - N/A   Clear
2:53 PM 73.4 °F - 24.8 °F 16% 30.05 in 50.0 mi Variable 3.5 mph - N/A   Clear
4:55 PM 75.2 °F - 28.4 °F 18% 30.01 in 50.0 mi North 5.8 mph - N/A   Partly Cloudy
5:46 PM 73.4 °F - 30.2 °F 20% 30.00 in 60.0 mi NW 5.8 mph - N/A   Partly Cloudy
6:47 PM 68.0 °F - 32.0 °F 26% 29.98 in 50.0 mi NW 5.8 mph - N/A   Partly Cloudy
7:48 PM 66.2 °F - 32.0 °F 28% 29.97 in 30.0 mi WNW 6.9 mph - N/A   Scattered Clouds
8:47 PM 62.6 °F - 33.8 °F 34% 29.96 in 30.0 mi Calm Calm - N/A   Partly Cloudy
9:46 PM 55.4 °F - 37.4 °F 51% 29.94 in 30.0 mi WSW 4.6 mph - N/A   Partly Cloudy
11:15 PM 53.6 °F - 37.4 °F 54% 29.92 in 10.0 mi SW 6.9 mph - N/A   Clear
11:35 PM 55.4 °F - 35.6 °F 47% 29.91 in 10.0 mi South 6.9 mph - N/A   Clear
11:55 PM 53.6 °F - 37.4 °F 54% 29.90 in 10.0 mi WSW 5.8 mph - N/A   Clear